Simultaneous Nadir Overpasses (SNOs) Predictions

Prediction of SNOs between NOAA-19 and NPP Satellite Orbit:

Table of predicted SNOs for the next 14.0 days since TLE Epoch: 7/2/2022
Index Date (NOAA-19) Time (NOAA-19) Lat,Lon (NOAA-19) SZA (NOAA-19 ) Date (NPP) Time (NPP) Lat,Lon (NPP) SZA (NPP ) Distance(km) Time Diff (sec)
1 07/11/2022 01:29:09 -76.44, -42.94 124.64 07/11/2022 01:30:18 -76.49, -40.75 124.83 57.20 69
2 07/11/2022 02:20:03 76.74, 125.55 55.52 07/11/2022 02:21:09 76.74, 125.63 55.49 2.17 66
3 07/11/2022 03:11:01 -76.78, -67.05 124.46 07/11/2022 03:11:54 -76.76, -67.15 124.48 2.89 53
4 07/11/2022 04:02:02 76.78, 100.21 55.55 07/11/2022 04:02:40 76.78, 100.08 55.55 3.31 38
5 07/11/2022 04:53:01 -76.77, -92.57 124.45 07/11/2022 04:53:24 -76.76, -92.53 124.47 1.28 23
6 07/11/2022 05:44:02 76.77, 74.68 55.56 07/11/2022 05:44:10 76.78, 74.70 55.57 1.34 8
7 07/11/2022 06:35:00 -76.81,-117.91 124.42 07/11/2022 06:34:55 -76.81,-118.08 124.40 4.31 5
8 07/11/2022 07:26:01 76.81, 49.34 55.59 07/11/2022 07:25:40 76.79, 49.32 55.58 2.62 21
9 07/11/2022 08:17:00 -76.80,-143.44 124.42 07/11/2022 08:16:25 -76.81,-143.46 124.39 1.30 35
10 07/11/2022 09:08:01 76.80, 23.82 55.59 07/11/2022 09:07:11 76.83, 23.77 55.64 3.48 50
11 07/11/2022 09:58:59 -76.84,-168.78 124.39 07/11/2022 09:57:55 -76.81,-168.84 124.38 3.27 64
12 07/11/2022 10:49:56 77.01, -0.78 55.72 07/11/2022 10:48:45 77.01, -2.33 55.88 38.60 71



Historial Predications of SNOs between NOAA-19 and NPP
